{"data":{"norad_id":37216,"epoch":"2026-09-20T03:51:56.178432Z","epoch_age_seconds":43661,"freshness":"FRESH","line1":"1 37216U 10060A   26263.16106688  .00000228  00000+0  35240-4 0  9990","line2":"2 37216  97.8918  85.4099 0001422  81.4507 278.6867 14.82155967858634","mean_motion":14.82155967,"eccentricity":0.0001422,"inclination_deg":97.8918,"raan_deg":85.4099,"arg_perigee_deg":81.4507,"mean_anomaly_deg":278.6867,"bstar":3.524e-5,"rev_number":85863,"period_min":97.155767143364,"perigee_km":621.53155088525,"apogee_km":623.52253973973,"semimajor_km":7000.6640453125,"source":"CELESTRAK","updated_at":"2026-09-20T09:00:33.891592Z"}}